This is the latest recevied weather packets stored in our database for station/object YM2KA-13. If no packets are shown the sender has not sent any weather packets the latest 10 day(s).
| Time | Temp. | Humidity | Pressure | Rain* | Wind** | Luminosity | Snow |
|---|---|---|---|---|---|---|---|
| 1788013382 | 21.11° C | 54% | 1008.3 hPa | 0 mm | - | - | - |
| 1788013219 | 21.11° C | 54% | 1008.3 hPa | 0 mm | - | - | - |
| 1788012621 | 21.11° C | 54% | 1008.4 hPa | 0 mm | - | - | - |
| 1788012479 | 21.11° C | 55% | 1008.4 hPa | 0 mm | - | - | - |
| 1788012021 | 21.11° C | 55% | 1008.3 hPa | 0 mm | - | - | - |
| 1788011585 | 21.11° C | 55% | 1008.3 hPa | 0 mm | - | - | - |
| 1788011412 | 21.11° C | 55% | 1008.3 hPa | 0 mm | - | - | - |
| 1788010814 | 21.11° C | 55% | 1008.3 hPa | 0 mm | - | - | - |
| 1788010682 | 21.11° C | 55% | 1008.3 hPa | 0 mm | - | - | - |
| 1788010215 | 21.11° C | 55% | 1008.5 hPa | 0 mm | - | - | - |
| 1788009779 | 21.11° C | 55% | 1008.5 hPa | 0 mm | - | - | - |
| 1788009620 | 21.11° C | 55% | 1008.5 hPa | 0 mm | - | - | - |
| 1788009018 | 21.11° C | 55% | 1008.4 hPa | 0 mm | - | - | - |
| 1788008885 | 21.11° C | 56% | 1008.5 hPa | 0 mm | - | - | - |
| 1788008418 | 21.11° C | 56% | 1008.3 hPa | 0 mm | - | - | - |
| 1788007982 | 21.67° C | 53% | 1008.2 hPa | 0 mm | - | - | - |
| 1788007819 | 21.67° C | 52% | 1008.2 hPa | 0 mm | - | - | - |
| 1788007221 | 22.22° C | 50% | 1008.1 hPa | 0 mm | - | - | - |
| 1788007078 | 22.22° C | 49% | 1008.1 hPa | 0 mm | - | - | - |
| 1788006621 | 21.67° C | 51% | 1008.1 hPa | 0 mm | - | - | - |
| 1788006184 | 21.67° C | 51% | 1008.1 hPa | 0 mm | - | - | - |
| 1788006021 | 21.67° C | 50% | 1008.1 hPa | 0 mm | - | - | - |
| 1788005418 | 22.22° C | 50% | 1008 hPa | 0 mm | - | - | - |
| 1788005281 | 22.22° C | 50% | 1008 hPa | 0 mm | - | - | - |
| 1788004813 | 22.22° C | 50% | 1007.9 hPa | 0 mm | - | - | - |
* Rain latest hour (hover to see other rain measurements)
** Current wind speed in m/s (hover to see current wind gust speed)